This is the latest recevied weather packets stored in our database for station/object WA4IKQ. If no packets are shown the sender has not sent any weather packets the latest 10 day(s).
| Time | Temp. | Humidity | Pressure | Rain* | Wind** | Luminosity | Snow |
|---|---|---|---|---|---|---|---|
| 1787517790 | 26.11° C | 83% | 1015.4 hPa | 0 mm | 0.89 m/s, 205° | - | - |
| 1787517670 | 26.11° C | 83% | 1015.4 hPa | 0 mm | 0.89 m/s, 205° | - | - |
| 1787517448 | 26.11° C | 82% | 1015.5 hPa | 0 mm | 1.34 m/s, 170° | - | - |
| 1787517371 | 26.11° C | 82% | 1015.5 hPa | 0 mm | 1.34 m/s, 170° | - | - |
| 1787517130 | 26.11° C | 82% | 1015.4 hPa | 0 mm | 1.34 m/s, 194° | - | - |
| 1787517068 | 26.11° C | 82% | 1015.4 hPa | 0 mm | 1.34 m/s, 194° | - | - |
| 1787516853 | 26.11° C | 82% | 1015.4 hPa | 0 mm | 0.45 m/s, 148° | - | - |
| 1787516769 | 26.11° C | 82% | 1015.4 hPa | 0 mm | 0.45 m/s, 148° | - | - |
| 1787516559 | 26.11° C | 81% | 1015.4 hPa | 0 mm | 0.89 m/s, 226° | - | - |
| 1787516469 | 26.11° C | 81% | 1015.4 hPa | 0 mm | 0.89 m/s, 226° | - | - |
| 1787516257 | 26.11° C | 81% | 1015.5 hPa | 0 mm | 4.47 m/s, 184° | - | - |
| 1787516172 | 26.11° C | 81% | 1015.5 hPa | 0 mm | 4.47 m/s, 184° | - | - |
| 1787515994 | 26.11° C | 80% | 1015.6 hPa | 0 mm | 3.13 m/s, 167° | - | - |
| 1787515963 | 26.11° C | 80% | 1015.6 hPa | 0 mm | 3.13 m/s, 167° | - | - |
| 1787515871 | 26.11° C | 80% | 1015.6 hPa | 0 mm | 3.13 m/s, 167° | - | - |
| 1787515657 | 26.11° C | 80% | 1015.7 hPa | 0 mm | 1.79 m/s, 177° | - | - |
| 1787515570 | 26.11° C | 80% | 1015.7 hPa | 0 mm | 1.79 m/s, 177° | - | - |
| 1787515380 | 26.11° C | 80% | 1015.8 hPa | 0 mm | 1.34 m/s, 163° | - | - |
| 1787515271 | 26.11° C | 80% | 1015.8 hPa | 0 mm | 1.34 m/s, 163° | - | - |
| 1787515111 | 26.11° C | 80% | 1016 hPa | 0 mm | 2.68 m/s, 194° | - | - |
| 1787515080 | 26.11° C | 80% | 1016 hPa | 0 mm | 2.68 m/s, 194° | - | - |
| 1787514975 | 26.11° C | 80% | 1016 hPa | 0 mm | 2.68 m/s, 194° | - | - |
| 1787514812 | 26.11° C | 80% | 1016 hPa | 0 mm | 1.34 m/s, 169° | - | - |
| 1787514670 | 26.11° C | 80% | 1016 hPa | 0 mm | 1.34 m/s, 169° | - | - |
| 1787514522 | 26.11° C | 80% | 1016.1 hPa | 0 mm | 1.79 m/s, 167° | - | - |
* Rain latest hour (hover to see other rain measurements)
** Current wind speed in m/s (hover to see current wind gust speed)